QPF
0.00 0.00 0.00 0.00 0.00 0.00 0.00 0.00 0.00 0.00 0.00 0.01 0.01 0.01 0.01 0.01 0.02 0.00 0.00 0.01 0.01 0.02 0.03 0.03 0.04 0.04 0.04 0.05 0.06 0.06 0.08 0.08 0.08 0.08 0.10 0.12 0.10 0.08 0.07 0.04 0.04 0.04 0.04 0.04
0.00 0.00 0.00 0.00 0.00 0.00 0.00 0.00 0.00 0.00 0.00 0.00 0.00 0.01 0.02 0.03 0.02 0.01 0.01 0.01 0.02 0.03 0.03 0.03 0.04 0.04 0.06 0.07 0.07 0.07 0.08 0.07 0.05 0.06 0.06 0.06 0.06 0.08 0.08 0.07 0.06 0.05 0.05 0.05
0.00 0.00 0.00 0.00 0.00 0.00 0.00 0.00 0.00 0.00 0.00 0.01 0.01 0.01 0.02 0.03 0.02 0.01 0.01 0.01 0.03 0.04 0.05 0.05 0.04 0.07 0.06 0.07 0.08 0.08 0.06 0.06 0.07 0.07 0.06 0.05 0.05 0.06 0.05 0.04 0.06 0.06 0.05 0.05
0.00 0.00 0.00 0.00 0.00 0.00 0.00 0.00 0.00 0.00 0.00 0.01 0.01 0.03 0.03 0.02 0.01 0.01 0.02 0.03 0.03 0.04 0.04 0.05 0.07 0.09 0.08 0.07 0.06 0.05 0.05 0.05 0.06 0.06 0.05 0.04 0.03 0.03 0.04 0.04 0.04 0.05 0.05 0.05
0.01 0.01 0.01 0.00 0.00 0.00 0.00 0.00 0.00 0.00 0.00 0.01 0.01 0.03 0.05 0.03 0.02 0.02 0.04 0.05 0.04 0.03 0.03 0.03 0.04 0.05 0.06 0.05 0.04 0.04 0.05 0.05 0.05 0.05 0.03 0.03 0.03 0.02 0.03 0.04 0.04 0.05 0.06 0.06
0.00 0.00 0.01 0.00 0.00 0.00 0.00 0.00 0.00 0.01 0.01 0.01 0.01 0.02 0.03 0.02 0.02 0.02 0.03 0.02 0.01 0.01 0.01 0.02 0.04 0.06 0.06 0.05 0.04 0.03 0.03 0.04 0.05 0.05 0.04 0.04 0.03 0.02 0.02 0.03 0.03 0.03 0.04 0.04
0.00 0.00 0.00 0.00 0.00 0.00 0.00 0.00 0.00 0.00 0.00 0.00 0.01 0.01 0.01 0.01 0.01 0.01 0.01 0.01 0.01 0.01 0.01 0.01 0.03 0.04 0.04 0.04 0.04 0.03 0.04 0.05 0.06 0.04 0.04 0.05 0.04 0.03 0.03 0.03 0.03 0.02 0.02 0.02
0.00 0.00 0.00 0.00 0.00 0.00 0.00 0.00 0.00 0.00 0.00 0.00 0.01 0.01 0.01 0.01 0.01 0.01 0.00 0.00 0.01 0.01 0.01 0.01 0.03 0.04 0.02 0.02 0.02 0.01 0.03 0.05 0.07 0.05 0.04 0.04 0.04 0.03 0.03 0.03 0.03 0.04 0.03 0.02
0.00 0.00 0.00 0.00 0.00 0.00 0.00 0.00 0.00 0.00 0.00 0.00 0.00 0.00 0.01 0.01 0.01 0.00 0.01 0.01 0.01 0.01 0.02 0.02 0.02 0.02 0.01 0.01 0.01 0.01 0.01 0.03 0.04 0.03 0.03 0.03 0.03 0.02 0.02 0.02 0.02 0.03 0.04 0.04
0.00 0.00 0.00 0.00 0.00 0.00 0.00 0.00 0.00 0.00 0.00 0.00 0.00 0.00 0.00 0.01 0.01 0.01 0.00 0.01 0.01 0.01 0.03 0.03 0.02 0.02 0.01 0.01 0.00 0.00 0.01 0.01 0.02 0.03 0.03 0.03 0.02 0.02 0.02 0.03 0.03 0.03 0.03 0.03
0.01 0.00 0.00 0.00 0.00 0.00 0.00 0.00 0.00 0.00 0.01 0.01 0.00 0.01 0.01 0.01 0.00 0.00 0.00 0.01 0.01 0.02 0.02 0.03 0.02 0.02 0.02 0.01 0.01 0.01 0.01 0.02 0.02 0.02 0.03 0.05 0.04 0.03 0.03 0.03 0.03 0.04 0.05 0.05
0.01 0.00 0.00 0.00 0.00 0.00 0.00 0.00 0.00 0.00 0.00 0.01 0.01 0.01 0.01 0.01 0.01 0.01 0.01 0.01 0.01 0.02 0.02 0.03 0.03 0.02 0.02 0.02 0.02 0.02 0.02 0.02 0.01 0.02 0.02 0.04 0.05 0.04 0.04 0.04 0.04 0.05 0.06 0.07
0.00 0.01 0.00 0.00 0.00 0.00 0.00 0.00 0.00 0.00 0.00 0.00 0.01 0.01 0.01 0.01 0.01 0.01 0.01 0.01 0.01 0.01 0.02 0.03 0.03 0.02 0.02 0.02 0.02 0.03 0.03 0.03 0.02 0.02 0.02 0.03 0.03 0.04 0.05 0.06 0.07 0.08 0.07 0.07
0.01 0.01 0.01 0.00 0.00 0.00 0.00 0.00 0.00 0.00 0.00 0.01 0.01 0.01 0.01 0.01 0.01 0.01 0.02 0.02 0.02 0.01 0.01 0.02 0.02 0.02 0.02 0.02 0.02 0.03 0.03 0.03 0.02 0.02 0.02 0.02 0.03 0.05 0.07 0.08 0.09 0.09 0.08 0.08
0.01 0.02 0.01 0.01 0.01 0.01 0.01 0.01 0.01 0.00 0.00 0.01 0.01 0.01 0.01 0.01 0.01 0.01 0.02 0.03 0.02 0.02 0.01 0.01 0.01 0.01 0.01 0.01 0.02 0.02 0.02 0.02 0.02 0.02 0.02 0.02 0.03 0.05 0.06 0.08 0.10 0.10 0.09 0.08
0.01 0.01 0.01 0.01 0.01 0.01 0.01 0.01 0.01 0.01 0.00 0.00 0.00 0.01 0.01 0.01 0.01 0.01 0.02 0.03 0.02 0.02 0.02 0.01 0.01 0.01 0.01 0.01 0.01 0.01 0.02 0.02 0.03 0.03 0.03 0.03 0.03 0.03 0.03 0.03 0.05 0.08 0.09 0.09
0.00 0.00 0.00 0.00 0.00 0.00 0.00 0.00 0.01 0.01 0.00 0.01 0.01 0.01 0.01 0.01 0.01 0.02 0.02 0.03 0.02 0.02 0.02 0.01 0.01 0.01 0.01 0.01 0.02 0.03 0.04 0.04 0.04 0.04 0.03 0.03 0.04 0.04 0.03 0.03 0.03 0.03 0.03 0.04
0.00 0.00 0.00 0.00 0.00 0.01 0.00 0.00 0.00 0.00 0.00 0.00 0.00 0.00 0.01 0.01 0.01 0.02 0.02 0.03 0.03 0.02 0.02 0.01 0.01 0.01 0.02 0.03 0.03 0.03 0.03 0.04 0.05 0.05 0.05 0.04 0.03 0.04 0.05 0.04 0.04 0.03 0.02 0.03
0.01 0.00 0.00 0.00 0.00 0.01 0.01 0.00 0.00 0.00 0.00 0.00 0.00 0.01 0.01 0.01 0.02 0.02 0.02 0.03 0.04 0.03 0.02 0.02 0.01 0.01 0.02 0.03 0.04 0.04 0.04 0.05 0.05 0.06 0.05 0.05 0.04 0.04 0.04 0.05 0.05 0.03 0.03 0.03
0.01 0.01 0.01 0.01 0.01 0.01 0.01 0.00 0.00 0.00 0.00 0.00 0.01 0.01 0.01 0.02 0.02 0.01 0.01 0.02 0.05 0.04 0.03 0.02 0.02 0.01 0.02 0.04 0.04 0.05 0.05 0.04 0.04 0.04 0.04 0.05 0.05 0.04 0.04 0.04 0.04 0.04 0.04 0.04
0.01 0.01 0.01 0.01 0.01 0.01 0.00 0.00 0.01 0.01 0.01 0.01 0.01 0.01 0.01 0.02 0.02 0.02 0.02 0.02 0.04 0.05 0.03 0.03 0.02 0.03 0.03 0.04 0.04 0.05 0.05 0.04 0.03 0.04 0.05 0.05 0.05 0.05 0.04 0.05 0.05 0.06 0.05 0.04
0.01 0.01 0.01 0.01 0.01 0.01 0.01 0.01 0.01 0.01 0.01 0.01 0.01 0.01 0.01 0.02 0.02 0.02 0.02 0.02 0.02 0.03 0.03 0.03 0.03 0.03 0.03 0.04 0.05 0.05 0.05 0.05 0.06 0.06 0.05 0.05 0.05 0.06 0.06 0.06 0.05 0.04 0.04 0.03
0.02 0.02 0.01 0.01 0.01 0.01 0.01 0.01 0.01 0.01 0.01 0.01 0.01 0.01 0.02 0.03 0.02 0.02 0.01 0.01 0.01 0.02 0.03 0.03 0.03 0.04 0.03 0.03 0.05 0.06 0.06 0.06 0.05 0.07 0.06 0.07 0.06 0.06 0.05 0.05 0.04 0.03 0.03 0.02
0.02 0.01 0.01 0.01 0.01 0.01 0.01 0.01 0.01 0.02 0.02 0.03 0.03 0.02 0.02 0.04 0.02 0.02 0.02 0.02 0.01 0.01 0.02 0.03 0.02 0.04 0.03 0.02 0.03 0.04 0.06 0.07 0.07 0.06 0.06 0.06 0.08 0.07 0.05 0.05 0.04 0.03 0.02 0.02
0.02 0.02 0.01 0.01 0.01 0.02 0.02 0.01 0.01 0.02 0.03 0.03 0.03 0.03 0.04 0.06 0.05 0.03 0.02 0.02 0.02 0.02 0.02 0.02 0.02 0.02 0.04 0.03 0.03 0.03 0.04 0.06 0.07 0.07 0.07 0.07 0.07 0.06 0.04 0.03 0.03 0.02 0.02 0.02
0.03 0.02 0.02 0.03 0.03 0.03 0.02 0.02 0.02 0.03 0.04 0.04 0.04 0.04 0.05 0.06 0.06 0.04 0.03 0.02 0.02 0.02 0.02 0.02 0.03 0.02 0.03 0.03 0.02 0.02 0.03 0.04 0.05 0.06 0.07 0.08 0.09 0.07 0.05 0.04 0.03 0.03 0.03 0.04
MSLP
1009.15 1009.99 1010.59 1010.94 1011.06 1010.99 1010.82 1010.62 1010.47 1010.39 1010.40 1010.48 1010.61 1010.73 1010.82 1010.85 1010.78 1010.62 1010.36 1009.99 1009.51 1008.94 1008.28 1007.56 1006.80 1006.04 1005.34 1004.74 1004.28 1004.00 1003.91 1004.00 1004.22 1004.55 1004.94 1005.33 1005.71 1006.06 1006.38 1006.68 1007.00 1007.34 1007.72 1008.15
1009.47 1010.19 1010.70 1010.98 1011.07 1011.03 1010.93 1010.83 1010.79 1010.81 1010.89 1011.00 1011.12 1011.20 1011.22 1011.17 1011.05 1010.85 1010.59 1010.26 1009.85 1009.36 1008.77 1008.11 1007.37 1006.61 1005.87 1005.19 1004.64 1004.25 1004.05 1004.02 1004.15 1004.39 1004.69 1005.02 1005.33 1005.61 1005.88 1006.14 1006.43 1006.77 1007.16 1007.61
1009.66 1010.25 1010.65 1010.88 1010.98 1011.00 1011.01 1011.05 1011.13 1011.26 1011.39 1011.51 1011.57 1011.55 1011.45 1011.27 1011.04 1010.78 1010.50 1010.20 1009.86 1009.48 1009.02 1008.46 1007.82 1007.12 1006.39 1005.69 1005.07 1004.59 1004.28 1004.14 1004.16 1004.28 1004.48 1004.70 1004.93 1005.14 1005.35 1005.58 1005.84 1006.17 1006.58 1007.05
1009.77 1010.21 1010.51 1010.70 1010.84 1010.96 1011.11 1011.31 1011.54 1011.76 1011.95 1012.04 1012.01 1011.86 1011.58 1011.23 1010.86 1010.49 1010.17 1009.89 1009.63 1009.37 1009.06 1008.66 1008.15 1007.55 1006.88 1006.20 1005.55 1005.00 1004.60 1004.34 1004.22 1004.22 1004.29 1004.40 1004.53 1004.66 1004.82 1005.00 1005.25 1005.58 1006.00 1006.50
1009.85 1010.14 1010.35 1010.53 1010.73 1010.97 1011.28 1011.65 1012.03 1012.36 1012.58 1012.63 1012.49 1012.17 1011.70 1011.16 1010.61 1010.12 1009.73 1009.46 1009.27 1009.14 1008.98 1008.75 1008.40 1007.93 1007.35 1006.71 1006.06 1005.46 1004.96 1004.58 1004.32 1004.18 1004.11 1004.10 1004.13 1004.18 1004.28 1004.43 1004.67 1005.00 1005.44 1005.96
1009.98 1010.12 1010.26 1010.45 1010.71 1011.09 1011.56 1012.09 1012.61 1013.03 1013.27 1013.27 1013.02 1012.53 1011.86 1011.12 1010.39 1009.77 1009.32 1009.04 1008.91 1008.88 1008.87 1008.80 1008.61 1008.28 1007.80 1007.21 1006.56 1005.92 1005.33 1004.84 1004.44 1004.15 1003.95 1003.81 1003.73 1003.70 1003.73 1003.85 1004.08 1004.42 1004.88 1005.43
1010.19 1010.22 1010.31 1010.50 1010.84 1011.33 1011.94 1012.62 1013.25 1013.73 1013.98 1013.93 1013.56 1012.92 1012.09 1011.17 1010.29 1009.55 1009.02 1008.73 1008.64 1008.70 1008.80 1008.87 1008.81 1008.60 1008.21 1007.67 1007.03 1006.35 1005.69 1005.08 1004.56 1004.13 1003.78 1003.51 1003.32 1003.20 1003.17 1003.26 1003.47 1003.82 1004.29 1004.86
1010.52 1010.46 1010.51 1010.71 1011.11 1011.68 1012.40 1013.16 1013.86 1014.38 1014.62 1014.51 1014.06 1013.30 1012.33 1011.28 1010.28 1009.46 1008.88 1008.58 1008.51 1008.62 1008.81 1008.96 1009.01 1008.88 1008.56 1008.06 1007.43 1006.72 1005.99 1005.29 1004.65 1004.08 1003.60 1003.21 1002.90 1002.69 1002.60 1002.64 1002.83 1003.17 1003.64 1004.23
1010.93 1010.82 1010.84 1011.05 1011.47 1012.09 1012.84 1013.64 1014.35 1014.86 1015.06 1014.90 1014.38 1013.54 1012.50 1011.38 1010.34 1009.47 1008.87 1008.56 1008.51 1008.64 1008.87 1009.08 1009.18 1009.10 1008.82 1008.35 1007.72 1006.99 1006.21 1005.43 1004.69 1004.01 1003.41 1002.90 1002.48 1002.18 1002.01 1001.99 1002.14 1002.46 1002.93 1003.52
1011.38 1011.24 1011.25 1011.44 1011.85 1012.45 1013.18 1013.94 1014.59 1015.04 1015.18 1014.97 1014.41 1013.54 1012.49 1011.38 1010.34 1009.50 1008.92 1008.62 1008.58 1008.72 1008.96 1009.18 1009.29 1009.22 1008.96 1008.50 1007.88 1007.13 1006.32 1005.49 1004.68 1003.91 1003.21 1002.60 1002.08 1001.68 1001.43 1001.34 1001.44 1001.72 1002.17 1002.75
1011.79 1011.65 1011.64 1011.80 1012.15 1012.68 1013.31 1013.95 1014.49 1014.83 1014.89 1014.62 1014.04 1013.20 1012.20 1011.16 1010.21 1009.44 1008.92 1008.67 1008.64 1008.79 1009.01 1009.21 1009.30 1009.22 1008.95 1008.50 1007.88 1007.14 1006.31 1005.46 1004.62 1003.79 1003.02 1002.33 1001.72 1001.23 1000.89 1000.73 1000.76 1000.99 1001.41 1001.98
1012.09 1011.96 1011.93 1012.04 1012.30 1012.70 1013.17 1013.63 1014.01 1014.20 1014.14 1013.82 1013.24 1012.46 1011.56 1010.66 1009.85 1009.22 1008.80 1008.62 1008.63 1008.78 1008.97 1009.13 1009.19 1009.08 1008.81 1008.35 1007.75 1007.03 1006.22 1005.38 1004.53 1003.68 1002.87 1002.11 1001.43 1000.86 1000.44 1000.20 1000.16 1000.34 1000.71 1001.26
1012.26 1012.14 1012.09 1012.12 1012.26 1012.49 1012.75 1013.00 1013.16 1013.18 1013.00 1012.62 1012.06 1011.36 1010.61 1009.88 1009.25 1008.79 1008.52 1008.43 1008.50 1008.65 1008.82 1008.95 1008.96 1008.83 1008.54 1008.10 1007.52 1006.84 1006.08 1005.27 1004.44 1003.60 1002.77 1001.97 1001.24 1000.61 1000.12 999.80 999.70 999.81 1000.14 1000.66
1012.32 1012.20 1012.10 1012.05 1012.05 1012.08 1012.12 1012.13 1012.06 1011.89 1011.58 1011.15 1010.61 1010.01 1009.42 1008.88 1008.46 1008.19 1008.07 1008.10 1008.23 1008.40 1008.56 1008.66 1008.64 1008.49 1008.20 1007.77 1007.23 1006.61 1005.91 1005.16 1004.37 1003.56 1002.74 1001.94 1001.17 1000.50 999.95 999.58 999.41 999.47 999.75 1000.23
1012.32 1012.18 1012.03 1011.88 1011.72 1011.56 1011.37 1011.14 1010.86 1010.50 1010.07 1009.59 1009.07 1008.58 1008.13 1007.79 1007.57 1007.48 1007.52 1007.66 1007.86 1008.06 1008.22 1008.29 1008.26 1008.09 1007.81 1007.42 1006.93 1006.37 1005.75 1005.07 1004.34 1003.58 1002.80 1002.00 1001.24 1000.54 999.97 999.55 999.34 999.34 999.57 1000.00
1012.36 1012.19 1011.97 1011.71 1011.40 1011.05 1010.66 1010.22 1009.73 1009.21 1008.68 1008.15 1007.66 1007.25 1006.93 1006.75 1006.70 1006.77 1006.94 1007.18 1007.43 1007.66 1007.82 1007.89 1007.84 1007.68 1007.42 1007.07 1006.64 1006.15 1005.60 1005.00 1004.36 1003.66 1002.92 1002.17 1001.42 1000.74 1000.16 999.72 999.48 999.44 999.61 999.98
1012.52 1012.29 1011.99 1011.63 1011.19 1010.69 1010.12 1009.51 1008.86 1008.21 1007.59 1007.03 1006.55 1006.20 1005.99 1005.92 1005.99 1006.17 1006.43 1006.72 1007.01 1007.25 1007.40 1007.46 1007.41 1007.26 1007.03 1006.72 1006.36 1005.94 1005.47 1004.96 1004.39 1003.76 1003.10 1002.40 1001.71 1001.06 1000.50 1000.08 999.82 999.74 999.86 1000.15
1012.88 1012.57 1012.18 1011.72 1011.17 1010.54 1009.85 1009.12 1008.37 1007.63 1006.95 1006.36 1005.90 1005.57 1005.41 1005.40 1005.53 1005.75 1006.04 1006.35 1006.63 1006.85 1006.99 1007.03 1006.98 1006.84 1006.64 1006.38 1006.07 1005.72 1005.33 1004.90 1004.41 1003.87 1003.28 1002.66 1002.05 1001.47 1000.96 1000.57 1000.32 1000.22 1000.29 1000.50
1013.41 1013.01 1012.54 1011.98 1011.35 1010.64 1009.87 1009.07 1008.26 1007.48 1006.77 1006.17 1005.70 1005.39 1005.23 1005.23 1005.34 1005.55 1005.80 1006.06 1006.30 1006.47 1006.57 1006.59 1006.53 1006.40 1006.22 1006.01 1005.75 1005.47 1005.15 1004.79 1004.38 1003.92 1003.43 1002.91 1002.39 1001.90 1001.47 1001.14 1000.92 1000.83 1000.85 1000.98
1014.05 1013.55 1012.99 1012.36 1011.66 1010.91 1010.10 1009.27 1008.45 1007.67 1006.96 1006.36 1005.89 1005.56 1005.38 1005.33 1005.38 1005.51 1005.68 1005.85 1006.00 1006.10 1006.14 1006.12 1006.04 1005.92 1005.77 1005.59 1005.38 1005.15 1004.90 1004.60 1004.27 1003.90 1003.50 1003.09 1002.68 1002.30 1001.97 1001.72 1001.55 1001.48 1001.47 1001.53
1014.67 1014.07 1013.42 1012.73 1011.98 1011.19 1010.38 1009.56 1008.76 1008.01 1007.33 1006.74 1006.27 1005.92 1005.69 1005.57 1005.53 1005.55 1005.61 1005.66 1005.70 1005.70 1005.68 1005.61 1005.52 1005.40 1005.26 1005.11 1004.95 1004.77 1004.56 1004.33 1004.07 1003.78 1003.47 1003.16 1002.86 1002.60 1002.38 1002.23 1002.13 1002.08 1002.07 1002.08
1015.12 1014.42 1013.69 1012.92 1012.13 1011.33 1010.52 1009.73 1008.97 1008.26 1007.63 1007.08 1006.62 1006.26 1005.98 1005.79 1005.66 1005.56 1005.49 1005.43 1005.35 1005.27 1005.18 1005.07 1004.95 1004.83 1004.72 1004.59 1004.46 1004.32 1004.16 1003.98 1003.78 1003.55 1003.33 1003.11 1002.92 1002.76 1002.65 1002.59 1002.56 1002.56 1002.56 1002.54
1015.28 1014.48 1013.66 1012.82 1011.98 1011.15 1010.34 1009.58 1008.87 1008.22 1007.64 1007.14 1006.71 1006.36 1006.06 1005.82 1005.62 1005.43 1005.26 1005.10 1004.94 1004.78 1004.64 1004.50 1004.38 1004.26 1004.16 1004.07 1003.97 1003.86 1003.73 1003.58 1003.42 1003.25 1003.09 1002.94 1002.83 1002.76 1002.73 1002.75 1002.78 1002.82 1002.85 1002.82
1015.07 1014.17 1013.24 1012.32 1011.41 1010.54 1009.72 1008.97 1008.30 1007.70 1007.19 1006.75 1006.38 1006.06 1005.79 1005.54 1005.31 1005.09 1004.87 1004.66 1004.45 1004.26 1004.09 1003.95 1003.83 1003.73 1003.66 1003.59 1003.51 1003.43 1003.32 1003.20 1003.06 1002.92 1002.79 1002.69 1002.62 1002.60 1002.63 1002.69 1002.77 1002.84 1002.88 1002.86
1014.49 1013.49 1012.46 1011.43 1010.43 1009.49 1008.64 1007.88 1007.23 1006.68 1006.23 1005.87 1005.57 1005.33 1005.12 1004.93 1004.73 1004.53 1004.33 1004.12 1003.93 1003.74 1003.59 1003.46 1003.37 1003.30 1003.25 1003.21 1003.16 1003.09 1003.00 1002.89 1002.76 1002.62 1002.50 1002.41 1002.35 1002.35 1002.38 1002.46 1002.54 1002.62 1002.66 1002.65
1013.64 1012.53 1011.39 1010.24 1009.14 1008.11 1007.19 1006.39 1005.74 1005.22 1004.83 1004.55 1004.35 1004.22 1004.12 1004.03 1003.94 1003.82 1003.70 1003.56 1003.42 1003.29 1003.18 1003.10 1003.05 1003.02 1003.00 1002.98 1002.95 1002.90 1002.82 1002.70 1002.57 1002.43 1002.29 1002.18 1002.10 1002.07 1002.08 1002.12 1002.18 1002.23 1002.26 1002.24
Thickness
5751 5739 5733 5739 5744 5746 5744 5739 5736 5744 5756 5751 5746 5748 5755 5762 5763 5763 5764 5765 5765 5767 5769 5768 5768 5767 5765 5762 5760 5758 5755 5754 5752 5749 5747 5743 5740 5740 5739 5739 5739 5738 5736 5734
5733 5731 5745 5749 5746 5744 5740 5735 5734 5741 5751 5747 5740 5741 5750 5756 5758 5761 5761 5762 5762 5762 5762 5763 5763 5762 5761 5758 5757 5755 5753 5751 5750 5748 5746 5743 5740 5738 5737 5736 5736 5735 5734 5732
5728 5737 5749 5744 5739 5735 5734 5731 5733 5734 5739 5742 5736 5730 5740 5749 5755 5758 5760 5761 5761 5760 5759 5758 5757 5756 5756 5754 5754 5753 5750 5749 5748 5745 5742 5740 5737 5735 5733 5733 5733 5733 5731 5729
5727 5739 5741 5738 5736 5734 5725 5741 5739 5735 5723 5713 5723 5705 5727 5737 5741 5748 5752 5755 5757 5758 5757 5755 5753 5752 5752 5752 5752 5750 5748 5746 5745 5743 5740 5736 5732 5730 5730 5730 5730 5729 5728 5727
5724 5734 5734 5731 5737 5738 5735 5743 5736 5730 5718 5708 5711 5702 5711 5727 5730 5739 5746 5751 5754 5756 5755 5753 5751 5750 5750 5749 5748 5747 5745 5743 5742 5740 5736 5733 5729 5728 5727 5727 5726 5725 5725 5724
5727 5738 5739 5739 5745 5743 5740 5731 5721 5708 5701 5690 5704 5697 5701 5715 5728 5737 5744 5748 5751 5753 5753 5751 5749 5747 5745 5745 5744 5742 5740 5739 5737 5735 5732 5729 5727 5725 5723 5723 5722 5721 5720 5720
5716 5727 5738 5742 5733 5734 5728 5708 5687 5685 5675 5682 5703 5698 5702 5726 5735 5739 5742 5744 5747 5749 5747 5746 5744 5742 5741 5740 5739 5738 5736 5733 5732 5730 5728 5726 5724 5722 5720 5719 5718 5717 5715 5715
5697 5700 5726 5735 5731 5722 5718 5709 5685 5674 5672 5680 5696 5693 5710 5731 5736 5739 5741 5741 5742 5743 5743 5742 5741 5739 5738 5737 5735 5733 5731 5729 5728 5726 5725 5723 5721 5719 5718 5716 5715 5713 5712 5711
5692 5697 5725 5733 5736 5727 5711 5703 5706 5685 5680 5674 5680 5694 5711 5727 5728 5730 5732 5734 5735 5737 5738 5738 5737 5735 5733 5732 5731 5730 5727 5725 5724 5723 5721 5719 5717 5716 5714 5713 5711 5710 5709 5708
5701 5695 5713 5724 5729 5723 5719 5705 5687 5677 5666 5664 5677 5685 5695 5711 5716 5720 5722 5725 5728 5731 5732 5731 5731 5730 5729 5728 5727 5726 5724 5722 5720 5719 5717 5715 5713 5712 5710 5709 5707 5706 5705 5704
5701 5690 5698 5707 5706 5704 5704 5697 5687 5675 5673 5663 5662 5678 5709 5711 5715 5715 5717 5720 5722 5723 5725 5725 5724 5724 5722 5721 5720 5719 5718 5717 5715 5714 5712 5710 5709 5708 5706 5704 5703 5702 5700 5699
5693 5681 5677 5691 5706 5712 5706 5698 5685 5675 5670 5667 5663 5676 5712 5713 5713 5712 5713 5716 5718 5719 5720 5719 5718 5717 5714 5713 5712 5712 5712 5712 5711 5710 5708 5706 5704 5703 5701 5700 5699 5698 5696 5695
5688 5674 5664 5672 5684 5694 5694 5692 5687 5677 5666 5658 5659 5676 5705 5706 5707 5708 5708 5709 5711 5712 5711 5710 5710 5709 5708 5708 5706 5705 5706 5706 5706 5705 5703 5701 5699 5698 5696 5695 5694 5693 5691 5690
5687 5667 5663 5662 5669 5679 5682 5686 5682 5674 5661 5659 5667 5679 5692 5696 5697 5699 5701 5702 5703 5704 5703 5702 5702 5702 5702 5702 5701 5699 5699 5700 5700 5698 5697 5695 5694 5693 5691 5690 5689 5688 5686 5684
5677 5663 5666 5670 5678 5680 5680 5680 5679 5674 5671 5667 5674 5678 5686 5690 5692 5693 5695 5696 5696 5697 5697 5696 5695 5695 5695 5695 5695 5694 5694 5694 5694 5692 5690 5689 5688 5687 5686 5685 5684 5682 5681 5679
5663 5658 5660 5663 5671 5673 5672 5675 5676 5676 5675 5673 5675 5675 5686 5688 5688 5687 5688 5689 5690 5690 5691 5691 5690 5689 5688 5688 5688 5688 5689 5689 5688 5686 5685 5684 5682 5681 5680 5679 5677 5676 5674 5672
5650 5649 5645 5645 5658 5661 5654 5666 5669 5671 5673 5671 5668 5674 5679 5679 5681 5682 5683 5684 5684 5684 5685 5683 5683 5683 5682 5682 5682 5682 5682 5682 5681 5680 5680 5678 5677 5675 5674 5673 5671 5668 5666 5664
5644 5638 5630 5632 5643 5636 5653 5666 5668 5667 5667 5669 5670 5672 5674 5674 5675 5677 5677 5676 5676 5677 5678 5677 5676 5676 5676 5676 5676 5676 5676 5676 5675 5674 5674 5672 5671 5669 5667 5666 5663 5660 5658 5656
5642 5635 5624 5620 5624 5633 5648 5658 5659 5658 5659 5664 5662 5663 5665 5667 5668 5668 5670 5670 5670 5671 5671 5671 5670 5670 5670 5670 5670 5669 5668 5668 5668 5668 5667 5667 5665 5663 5660 5658 5655 5653 5651 5650
5632 5630 5622 5616 5620 5621 5639 5654 5658 5655 5649 5657 5657 5656 5656 5658 5653 5657 5664 5663 5663 5663 5664 5664 5663 5663 5663 5663 5663 5662 5661 5660 5660 5661 5661 5661 5659 5657 5654 5651 5648 5646 5644 5643
5619 5617 5614 5612 5613 5622 5638 5647 5650 5636 5640 5651 5651 5650 5649 5649 5650 5653 5656 5656 5655 5656 5656 5656 5655 5654 5655 5656 5655 5654 5654 5653 5654 5654 5653 5652 5651 5650 5648 5644 5641 5639 5637 5635
5609 5607 5606 5604 5606 5615 5635 5637 5634 5635 5642 5644 5644 5644 5643 5643 5645 5646 5647 5647 5647 5646 5647 5648 5647 5647 5647 5647 5646 5645 5645 5647 5646 5646 5645 5644 5644 5643 5641 5637 5634 5632 5630 5628
5604 5607 5605 5607 5611 5621 5626 5630 5633 5633 5634 5637 5637 5638 5638 5637 5638 5639 5639 5638 5638 5638 5638 5639 5639 5638 5638 5638 5637 5636 5637 5638 5638 5637 5637 5636 5635 5634 5632 5630 5627 5625 5623 5621
5603 5603 5602 5603 5612 5618 5622 5625 5627 5628 5629 5631 5632 5632 5632 5632 5632 5632 5631 5630 5630 5630 5630 5630 5630 5629 5629 5629 5629 5629 5629 5630 5630 5629 5628 5627 5626 5625 5623 5622 5620 5618 5617 5616
5598 5598 5596 5599 5607 5612 5617 5619 5621 5622 5622 5623 5624 5625 5625 5626 5625 5625 5623 5622 5622 5622 5622 5622 5621 5620 5620 5621 5621 5621 5621 5622 5621 5619 5619 5618 5617 5615 5614 5614 5612 5611 5611 5610
5590 5591 5592 5596 5603 5603 5608 5614 5616 5615 5615 5616 5617 5617 5617 5618 5617 5617 5616 5615 5614 5614 5614 5614 5613 5613 5613 5613 5613 5614 5614 5613 5612 5610 5610 5609 5608 5607 5606 5605 5604 5604 5604 5603